Location: Street
(51.1247°N, 2.7429°W)
Time: 09:39:57
(UTC+00:00)

N. Korean satellite - Visible Passes

Search period start: 27 October 2020 00:00
Search period end: 06 November 2020 00:00
Orbit: 452 x 505 km, 97.2° (Epoch: 26 October)

Date Brightness Start Highest point End Pass type
(mag) Time Alt. Az. Time Alt. Az. Time Alt. Az.
27 Oct 8.1 05:25:20 10° NNE 05:28:34 37° E 05:31:45 10° SSE visible
27 Oct 9.5 17:39:04 10° SSW 17:41:55 22° W 17:44:44 10° NW visible
28 Oct 9.4 04:59:42 10° NE 05:02:16 20° E 05:04:50 10° SE visible
29 Oct 10.2 04:35:16 10° ENE 04:35:53 10° E 04:36:30 10° E visible
29 Oct 6.4 06:06:16 10° N 06:09:41 68° WNW 06:13:04 10° SSW visible
30 Oct 7.1 05:40:08 10° NNE 05:43:32 57° E 05:46:54 10° S visible
30 Oct 9.9 17:54:47 10° SW 17:56:58 15° W 17:59:07 10° NW visible
31 Oct 8.7 05:14:16 10° NE 05:17:17 28° E 05:20:17 10° SSE visible
31 Oct 9.0 17:27:32 10° SSW 17:30:37 28° W 17:33:42 10° NW visible
01 Nov 9.8 04:48:52 10° NE 04:50:56 15° E 04:53:00 10° SE visible
01 Nov 6.7 06:21:15 10° N 06:24:32 44° WNW 06:27:48 10° SW visible
02 Nov 6.4 05:54:59 10° NNE 05:58:25 88° E 06:01:51 10° SSW visible
02 Nov 10.4 18:11:16 10° W 18:11:59 10° W 18:12:44 10° WNW visible
03 Nov 7.8 05:28:56 10° NNE 05:32:13 42° E 05:35:29 10° S visible
03 Nov 9.7 17:42:58 10° SW 17:45:35 20° W 17:48:12 10° NW visible
04 Nov 9.2 05:03:11 10° NE 05:05:54 22° E 05:08:37 10° SE visible
04 Nov 8.3 17:16:00 10° SSW 17:19:16 37° W 17:22:30 10° NNW visible
05 Nov 10.1 04:38:14 10° ENE 04:39:30 12° E 04:40:46 10° ESE visible
05 Nov 6.4 06:09:50 10° N 06:13:14 61° WNW 06:16:38 10° SSW visible
